Year,Month,Day,Hour,Minute,Value (Times are PST for temperature in C)
2020,07,27,00,00,18.80
2020,07,27,00,01,18.80
2020,07,27,00,02,18.80
2020,07,27,00,03,18.80
2020,07,27,00,04,18.80
2020,07,27,00,05,18.70
2020,07,27,00,06,18.70
2020,07,27,00,07,18.70
2020,07,27,00,08,18.70
2020,07,27,00,09,18.70
2020,07,27,00,10,18.70
2020,07,27,00,11,18.70
2020,07,27,00,12,18.70
2020,07,27,00,13,18.70
2020,07,27,00,14,18.70
2020,07,27,00,15,18.70
2020,07,27,00,16,18.70
2020,07,27,00,17,18.70
2020,07,27,00,18,18.70
2020,07,27,00,19,18.60
2020,07,27,00,20,18.60
2020,07,27,00,21,18.60
2020,07,27,00,22,18.60
2020,07,27,00,23,18.60
2020,07,27,00,24,18.60
2020,07,27,00,25,18.60
2020,07,27,00,26,18.50
2020,07,27,00,27,18.50
2020,07,27,00,28,18.50
2020,07,27,00,29,18.50
2020,07,27,00,30,18.50
2020,07,27,00,31,18.50
2020,07,27,00,32,18.50
2020,07,27,00,33,18.50
2020,07,27,00,34,18.40
2020,07,27,00,35,18.40
2020,07,27,00,36,18.40
2020,07,27,00,37,18.40
2020,07,27,00,38,18.40
2020,07,27,00,39,18.40
2020,07,27,00,40,18.40
2020,07,27,00,41,18.40
2020,07,27,00,42,18.40
2020,07,27,00,43,18.30
2020,07,27,00,44,18.30
2020,07,27,00,45,18.30
2020,07,27,00,46,18.30
2020,07,27,00,47,18.30
2020,07,27,00,48,18.30
2020,07,27,00,49,18.20
2020,07,27,00,50,18.20
2020,07,27,00,51,18.20
2020,07,27,00,52,18.20
2020,07,27,00,53,18.20
2020,07,27,00,54,18.20
2020,07,27,00,55,18.10
2020,07,27,00,56,18.10
2020,07,27,00,57,18.10
2020,07,27,00,58,18.10
2020,07,27,00,59,18.10
2020,07,27,01,00,18.10
2020,07,27,01,01,18.10
2020,07,27,01,02,18.00
2020,07,27,01,03,18.00
2020,07,27,01,04,18.00
2020,07,27,01,05,18.00
2020,07,27,01,06,17.90
2020,07,27,01,07,17.90
2020,07,27,01,08,17.90
2020,07,27,01,09,17.90
2020,07,27,01,10,17.90
2020,07,27,01,11,17.80
2020,07,27,01,12,17.80
2020,07,27,01,13,17.80
2020,07,27,01,14,17.80
2020,07,27,01,15,17.80
2020,07,27,01,16,17.80
2020,07,27,01,17,17.80
2020,07,27,01,18,17.80
2020,07,27,01,19,17.70
2020,07,27,01,20,17.70
2020,07,27,01,21,17.70
2020,07,27,01,22,17.70
2020,07,27,01,23,17.70
2020,07,27,01,24,17.70
2020,07,27,01,25,17.70
2020,07,27,01,26,17.70
2020,07,27,01,27,17.70
2020,07,27,01,28,17.70
2020,07,27,01,29,17.70
2020,07,27,01,30,17.70
2020,07,27,01,31,17.70
2020,07,27,01,32,17.70
2020,07,27,01,33,17.70
2020,07,27,01,34,17.70
2020,07,27,01,35,17.70
2020,07,27,01,36,17.70
2020,07,27,01,37,17.70
2020,07,27,01,38,17.70
2020,07,27,01,39,17.60
2020,07,27,01,40,17.60
2020,07,27,01,41,17.60
2020,07,27,01,42,17.60
2020,07,27,01,43,17.60
2020,07,27,01,44,17.60
2020,07,27,01,45,17.60
2020,07,27,01,46,17.60
2020,07,27,01,47,17.60
2020,07,27,01,48,17.60
2020,07,27,01,49,17.60
2020,07,27,01,50,17.60
2020,07,27,01,51,17.60
2020,07,27,01,52,17.60
2020,07,27,01,53,17.60
2020,07,27,01,54,17.60
2020,07,27,01,55,17.60
2020,07,27,01,56,17.60
2020,07,27,01,57,17.60
2020,07,27,01,58,17.50
2020,07,27,01,59,17.50
2020,07,27,02,00,17.50
2020,07,27,02,01,17.60
2020,07,27,02,02,17.50
2020,07,27,02,03,17.60
2020,07,27,02,04,17.60
2020,07,27,02,05,17.60
2020,07,27,02,06,17.70
2020,07,27,02,07,17.70
2020,07,27,02,08,17.80
2020,07,27,02,09,17.80
2020,07,27,02,10,17.80
2020,07,27,02,11,17.80
2020,07,27,02,12,17.80
2020,07,27,02,13,17.80
2020,07,27,02,14,17.80
2020,07,27,02,15,17.90
2020,07,27,02,16,17.80
2020,07,27,02,17,17.80
2020,07,27,02,18,17.80
2020,07,27,02,19,17.80
2020,07,27,02,20,17.80
2020,07,27,02,21,17.80
2020,07,27,02,22,17.80
2020,07,27,02,23,17.90
2020,07,27,02,24,17.90
2020,07,27,02,25,17.90
2020,07,27,02,26,17.90
2020,07,27,02,27,17.90
2020,07,27,02,28,17.90
2020,07,27,02,29,17.90
2020,07,27,02,30,17.90
2020,07,27,02,31,17.90
2020,07,27,02,32,17.80
2020,07,27,02,33,17.80
2020,07,27,02,34,17.80
2020,07,27,02,35,17.70
2020,07,27,02,36,17.70
2020,07,27,02,37,17.60
2020,07,27,02,38,17.60
2020,07,27,02,39,17.60
2020,07,27,02,40,17.60
2020,07,27,02,41,17.50
2020,07,27,02,42,17.50
2020,07,27,02,43,17.40
2020,07,27,02,44,17.40
2020,07,27,02,45,17.30
2020,07,27,02,46,17.30
2020,07,27,02,47,17.30
2020,07,27,02,48,17.30
2020,07,27,02,49,17.20
2020,07,27,02,50,17.20
2020,07,27,02,51,17.20
2020,07,27,02,52,17.20
2020,07,27,02,53,17.10
2020,07,27,02,54,17.10
2020,07,27,02,55,17.10
2020,07,27,02,56,17.10
2020,07,27,02,57,17.10
2020,07,27,02,58,17.10
2020,07,27,02,59,17.10
2020,07,27,03,00,17.10
2020,07,27,03,01,17.10
2020,07,27,03,02,17.10
2020,07,27,03,03,17.10
2020,07,27,03,04,17.10
2020,07,27,03,05,17.10
2020,07,27,03,06,17.00
2020,07,27,03,07,17.00
2020,07,27,03,08,17.00
2020,07,27,03,09,17.00
2020,07,27,03,10,17.00
2020,07,27,03,11,17.00
2020,07,27,03,12,17.00
2020,07,27,03,13,17.00
2020,07,27,03,14,17.00
2020,07,27,03,15,17.00
2020,07,27,03,16,17.00
2020,07,27,03,17,17.00
2020,07,27,03,18,17.00
2020,07,27,03,19,17.00
2020,07,27,03,20,17.00
2020,07,27,03,21,17.00
2020,07,27,03,22,17.00
2020,07,27,03,23,17.00
2020,07,27,03,24,17.00
2020,07,27,03,25,17.10
2020,07,27,03,26,17.10
2020,07,27,03,27,17.10
2020,07,27,03,28,17.10
2020,07,27,03,29,17.10
2020,07,27,03,30,17.10
2020,07,27,03,31,17.10
2020,07,27,03,32,17.10
2020,07,27,03,33,17.00
2020,07,27,03,34,17.00
2020,07,27,03,35,17.00
2020,07,27,03,36,17.00
2020,07,27,03,37,17.00
2020,07,27,03,38,17.00
2020,07,27,03,39,17.00
2020,07,27,03,40,17.00
2020,07,27,03,41,17.00
2020,07,27,03,42,17.00
2020,07,27,03,43,17.00
2020,07,27,03,44,17.00
2020,07,27,03,45,16.90
2020,07,27,03,46,16.90
2020,07,27,03,47,16.90
2020,07,27,03,48,16.90
2020,07,27,03,49,16.90
2020,07,27,03,50,17.00
2020,07,27,03,51,17.00
2020,07,27,03,52,17.00
2020,07,27,03,53,17.00
2020,07,27,03,54,17.00
2020,07,27,03,55,17.00
2020,07,27,03,56,17.00
2020,07,27,03,57,17.00
2020,07,27,03,58,17.00
2020,07,27,03,59,17.00
2020,07,27,04,00,17.00
2020,07,27,04,01,17.00
2020,07,27,04,02,17.00
2020,07,27,04,03,17.00
2020,07,27,04,04,17.00
2020,07,27,04,05,17.00
2020,07,27,04,06,17.00
2020,07,27,04,07,17.00
2020,07,27,04,08,17.00
2020,07,27,04,09,17.00
2020,07,27,04,10,17.00
2020,07,27,04,11,17.00
2020,07,27,04,12,17.00
2020,07,27,04,13,17.00
2020,07,27,04,14,16.90
2020,07,27,04,15,16.90
2020,07,27,04,16,16.90
2020,07,27,04,17,16.90
2020,07,27,04,18,16.90
2020,07,27,04,19,16.90
2020,07,27,04,20,16.90
2020,07,27,04,21,16.90
2020,07,27,04,22,16.90
2020,07,27,04,23,16.90
2020,07,27,04,24,16.90
2020,07,27,04,25,16.80
2020,07,27,04,26,16.80
2020,07,27,04,27,16.80
2020,07,27,04,28,16.80
2020,07,27,04,29,16.80
2020,07,27,04,30,16.80
2020,07,27,04,31,16.80
2020,07,27,04,32,16.80
2020,07,27,04,33,16.70
2020,07,27,04,34,16.70
2020,07,27,04,35,16.70
2020,07,27,04,36,16.70
2020,07,27,04,37,16.70
2020,07,27,04,38,16.60
2020,07,27,04,39,16.60
2020,07,27,04,40,16.60
2020,07,27,04,41,16.60
2020,07,27,04,42,16.60
2020,07,27,04,43,16.60
2020,07,27,04,44,16.60
2020,07,27,04,45,16.50
2020,07,27,04,46,16.50
2020,07,27,04,47,16.50
2020,07,27,04,48,16.50
2020,07,27,04,49,16.50
2020,07,27,04,50,16.50
2020,07,27,04,51,16.50
2020,07,27,04,52,16.50
2020,07,27,04,53,16.60
2020,07,27,04,54,16.60
2020,07,27,04,55,16.60
2020,07,27,04,56,16.60
2020,07,27,04,57,16.60
2020,07,27,04,58,16.60
2020,07,27,04,59,16.60
2020,07,27,05,00,16.70
2020,07,27,05,01,16.80
2020,07,27,05,02,16.80
2020,07,27,05,03,16.80
2020,07,27,05,04,16.90
2020,07,27,05,05,16.90
2020,07,27,05,06,16.90
2020,07,27,05,07,17.00
2020,07,27,05,08,17.10
2020,07,27,05,09,17.20
2020,07,27,05,10,17.30
2020,07,27,05,11,17.50
2020,07,27,05,12,17.70
2020,07,27,05,13,17.80
2020,07,27,05,14,17.90
2020,07,27,05,15,17.90
2020,07,27,05,16,17.90
2020,07,27,05,17,18.00
2020,07,27,05,18,18.10
2020,07,27,05,19,18.20
2020,07,27,05,20,18.20
2020,07,27,05,21,18.30
2020,07,27,05,22,18.40
2020,07,27,05,23,18.40
2020,07,27,05,24,18.50
2020,07,27,05,25,18.50
2020,07,27,05,26,18.60
2020,07,27,05,27,18.60
2020,07,27,05,28,18.60
2020,07,27,05,29,18.60
2020,07,27,05,30,18.60
2020,07,27,05,31,18.50
2020,07,27,05,32,18.40
2020,07,27,05,33,18.40
2020,07,27,05,34,18.30
2020,07,27,05,35,18.20
2020,07,27,05,36,18.20
2020,07,27,05,37,18.10
2020,07,27,05,38,18.00
2020,07,27,05,39,18.00
2020,07,27,05,40,17.90
2020,07,27,05,41,17.80
2020,07,27,05,42,17.80
2020,07,27,05,43,17.80
2020,07,27,05,44,17.70
2020,07,27,05,45,17.70
2020,07,27,05,46,17.60
2020,07,27,05,47,17.60
2020,07,27,05,48,17.60
2020,07,27,05,49,17.60
2020,07,27,05,50,17.80
2020,07,27,05,51,17.90
2020,07,27,05,52,18.00
2020,07,27,05,53,18.10
2020,07,27,05,54,18.20
2020,07,27,05,55,18.30
2020,07,27,05,56,18.30
2020,07,27,05,57,18.40
2020,07,27,05,58,18.40
2020,07,27,05,59,18.50
2020,07,27,06,00,18.60
2020,07,27,06,01,18.60
2020,07,27,06,02,18.60
2020,07,27,06,03,18.70
2020,07,27,06,04,18.70
2020,07,27,06,05,18.70
2020,07,27,06,06,18.70
2020,07,27,06,07,18.70
2020,07,27,06,08,18.70
2020,07,27,06,09,18.70
2020,07,27,06,10,18.70
2020,07,27,06,11,18.70
2020,07,27,06,12,18.70
2020,07,27,06,13,18.70
2020,07,27,06,14,18.70
2020,07,27,06,15,18.70
2020,07,27,06,16,18.60
2020,07,27,06,17,18.60
2020,07,27,06,18,18.50
2020,07,27,06,19,18.50
2020,07,27,06,20,18.50
2020,07,27,06,21,18.40
2020,07,27,06,22,18.40
2020,07,27,06,23,18.30
2020,07,27,06,24,18.30
2020,07,27,06,25,18.20
2020,07,27,06,26,18.20
2020,07,27,06,27,18.20
2020,07,27,06,28,18.20
2020,07,27,06,29,18.10
2020,07,27,06,30,18.10
2020,07,27,06,31,18.10
2020,07,27,06,32,18.10
2020,07,27,06,33,18.10
2020,07,27,06,34,18.10
2020,07,27,06,35,18.10
2020,07,27,06,36,18.10
2020,07,27,06,37,18.10
2020,07,27,06,38,18.00
2020,07,27,06,39,18.00
2020,07,27,06,40,18.00
2020,07,27,06,41,17.90
2020,07,27,06,42,17.90
2020,07,27,06,43,17.90
2020,07,27,06,44,17.90
2020,07,27,06,45,17.90
2020,07,27,06,46,17.90
2020,07,27,06,47,17.80
2020,07,27,06,48,17.80
2020,07,27,06,49,17.80
2020,07,27,06,50,17.80
2020,07,27,06,51,17.80
2020,07,27,06,52,17.70
2020,07,27,06,53,17.70
2020,07,27,06,54,17.70
2020,07,27,06,55,17.70
2020,07,27,06,56,17.70
2020,07,27,06,57,17.60
2020,07,27,06,58,17.60
2020,07,27,06,59,17.60
2020,07,27,07,00,17.60
2020,07,27,07,01,17.60
2020,07,27,07,02,17.60
2020,07,27,07,03,17.50
2020,07,27,07,04,17.50
2020,07,27,07,05,17.50
2020,07,27,07,06,17.50
2020,07,27,07,07,17.50
2020,07,27,07,08,17.40
2020,07,27,07,09,17.40
2020,07,27,07,10,17.40
2020,07,27,07,11,17.40
2020,07,27,07,12,17.40
2020,07,27,07,13,17.30
2020,07,27,07,14,17.30
2020,07,27,07,15,17.30
2020,07,27,07,16,17.30
2020,07,27,07,17,17.30
2020,07,27,07,18,17.30
2020,07,27,07,19,17.30
2020,07,27,07,20,17.30
2020,07,27,07,21,17.30
2020,07,27,07,22,17.30
2020,07,27,07,23,17.30
2020,07,27,07,24,17.30
2020,07,27,07,25,17.30
2020,07,27,07,26,17.30
2020,07,27,07,27,17.40
2020,07,27,07,28,17.50
2020,07,27,07,29,17.60
2020,07,27,07,30,17.60
2020,07,27,07,31,17.70
2020,07,27,07,32,17.80
2020,07,27,07,33,17.80
2020,07,27,07,34,17.90
2020,07,27,07,35,18.00
2020,07,27,07,36,18.10
2020,07,27,07,37,18.20
2020,07,27,07,38,18.30
2020,07,27,07,39,18.40
2020,07,27,07,40,18.50
2020,07,27,07,41,18.50
2020,07,27,07,42,18.60
2020,07,27,07,43,18.60
2020,07,27,07,44,18.60
2020,07,27,07,45,18.70
2020,07,27,07,46,18.70
2020,07,27,07,47,18.70
2020,07,27,07,48,18.70
2020,07,27,07,49,18.70
2020,07,27,07,50,18.70
2020,07,27,07,51,18.80
2020,07,27,07,52,18.80
2020,07,27,07,53,18.80
2020,07,27,07,54,18.70
2020,07,27,07,55,18.70
2020,07,27,07,56,18.70
2020,07,27,07,57,18.70
2020,07,27,07,58,18.70
2020,07,27,07,59,18.70
2020,07,27,08,00,18.70
2020,07,27,08,01,18.70
2020,07,27,08,02,18.70
2020,07,27,08,03,18.70
2020,07,27,08,04,18.70
2020,07,27,08,05,18.70
2020,07,27,08,06,18.70
2020,07,27,08,07,18.70
2020,07,27,08,08,18.70
2020,07,27,08,09,18.70
2020,07,27,08,10,18.80
2020,07,27,08,11,18.80
2020,07,27,08,12,18.80
2020,07,27,08,13,18.90
2020,07,27,08,14,18.90
2020,07,27,08,15,18.90
2020,07,27,08,16,18.90
2020,07,27,08,17,18.90
2020,07,27,08,18,18.90
2020,07,27,08,19,18.90
2020,07,27,08,20,18.90
2020,07,27,08,21,18.90
2020,07,27,08,22,18.90
2020,07,27,08,23,19.00
2020,07,27,08,24,19.00
2020,07,27,08,25,19.10
2020,07,27,08,26,19.10
2020,07,27,08,27,19.10
2020,07,27,08,28,19.30
2020,07,27,08,29,19.30
2020,07,27,08,30,19.40
2020,07,27,08,31,19.40
2020,07,27,08,32,19.50
2020,07,27,08,33,19.60
2020,07,27,08,34,19.60
2020,07,27,08,35,19.70
2020,07,27,08,36,19.70
2020,07,27,08,37,19.80
2020,07,27,08,38,19.90
2020,07,27,08,39,19.90
2020,07,27,08,40,19.90
2020,07,27,08,41,20.00
2020,07,27,08,42,20.00
2020,07,27,08,43,20.00
2020,07,27,08,44,20.10
2020,07,27,08,45,20.10
2020,07,27,08,46,20.20
2020,07,27,08,47,20.20
2020,07,27,08,48,20.30
2020,07,27,08,49,20.40
2020,07,27,08,50,20.40
2020,07,27,08,51,20.50
2020,07,27,08,52,20.50
2020,07,27,08,53,20.60
2020,07,27,08,54,20.60
2020,07,27,08,55,20.60
2020,07,27,08,56,20.60
2020,07,27,08,57,20.60
2020,07,27,08,58,20.70
2020,07,27,08,59,20.70
2020,07,27,09,00,20.70
2020,07,27,09,01,20.70
2020,07,27,09,02,20.70
2020,07,27,09,03,20.70
2020,07,27,09,04,20.80
2020,07,27,09,05,20.80
2020,07,27,09,06,20.80
2020,07,27,09,07,20.80
2020,07,27,09,08,20.80
2020,07,27,09,09,20.80
2020,07,27,09,10,20.80
2020,07,27,09,11,20.70
2020,07,27,09,12,20.70
2020,07,27,09,13,20.70
2020,07,27,09,14,20.70
2020,07,27,09,15,20.60
2020,07,27,09,16,20.60
2020,07,27,09,17,20.60
2020,07,27,09,18,20.60
2020,07,27,09,19,20.50
2020,07,27,09,20,20.50
2020,07,27,09,21,20.50
2020,07,27,09,22,20.50
2020,07,27,09,23,20.50
2020,07,27,09,24,20.50
2020,07,27,09,25,20.50
2020,07,27,09,26,20.60
2020,07,27,09,27,20.60
2020,07,27,09,28,20.60
2020,07,27,09,29,20.60
2020,07,27,09,30,20.70
2020,07,27,09,31,20.70
2020,07,27,09,32,20.80
2020,07,27,09,33,20.80
2020,07,27,09,34,20.90
2020,07,27,09,35,20.90
2020,07,27,09,36,20.90
2020,07,27,09,37,20.90
2020,07,27,09,38,21.00
2020,07,27,09,39,21.00
2020,07,27,09,40,21.00
2020,07,27,09,41,21.10
2020,07,27,09,42,21.10
2020,07,27,09,43,21.20
2020,07,27,09,44,21.20
2020,07,27,09,45,21.30
2020,07,27,09,46,21.30
2020,07,27,09,47,21.40
2020,07,27,09,48,21.40
2020,07,27,09,49,21.50
2020,07,27,09,50,21.60
2020,07,27,09,51,21.70
2020,07,27,09,52,21.80
2020,07,27,09,53,21.80
2020,07,27,09,54,21.90
2020,07,27,09,55,21.90
2020,07,27,09,56,22.00
2020,07,27,09,57,22.10
2020,07,27,09,58,22.10
2020,07,27,09,59,22.20
2020,07,27,10,00,22.20
2020,07,27,10,01,22.20
2020,07,27,10,02,22.30
2020,07,27,10,03,22.30
2020,07,27,10,04,22.30
2020,07,27,10,05,22.30
2020,07,27,10,06,22.30
2020,07,27,10,07,22.30
2020,07,27,10,08,22.30
2020,07,27,10,09,22.40
2020,07,27,10,10,22.40
2020,07,27,10,11,22.50
2020,07,27,10,12,22.60
2020,07,27,10,13,22.60
2020,07,27,10,14,22.80
2020,07,27,10,15,22.80
2020,07,27,10,16,22.90
2020,07,27,10,17,22.90
2020,07,27,10,18,23.00
2020,07,27,10,19,23.00
2020,07,27,10,20,23.10
2020,07,27,10,21,23.10
2020,07,27,10,22,23.10
2020,07,27,10,23,23.10
2020,07,27,10,24,23.10
2020,07,27,10,25,23.20
2020,07,27,10,26,23.20
2020,07,27,10,27,23.30
2020,07,27,10,28,23.30
2020,07,27,10,29,23.30
2020,07,27,10,30,23.30
2020,07,27,10,31,23.30
2020,07,27,10,32,23.30
2020,07,27,10,33,23.30
2020,07,27,10,34,23.40
2020,07,27,10,35,23.40
2020,07,27,10,36,23.50
2020,07,27,10,37,23.50
2020,07,27,10,38,23.60
2020,07,27,10,39,23.70
2020,07,27,10,40,23.70
2020,07,27,10,41,23.80
2020,07,27,10,42,23.70
2020,07,27,10,43,23.70
2020,07,27,10,44,23.60
2020,07,27,10,45,23.60
2020,07,27,10,46,23.50
2020,07,27,10,47,23.50
2020,07,27,10,48,23.50
2020,07,27,10,49,23.50
2020,07,27,10,50,23.60
2020,07,27,10,51,23.70
2020,07,27,10,52,23.70
2020,07,27,10,53,23.80
2020,07,27,10,54,23.90
2020,07,27,10,55,23.90
2020,07,27,10,56,23.90
2020,07,27,10,57,24.00
2020,07,27,10,58,24.10
2020,07,27,10,59,24.10
2020,07,27,11,00,24.10
2020,07,27,11,01,24.10
2020,07,27,11,02,24.00
2020,07,27,11,03,24.00
2020,07,27,11,04,24.00
2020,07,27,11,05,23.90
2020,07,27,11,06,23.90
2020,07,27,11,07,23.80
2020,07,27,11,08,23.80
2020,07,27,11,09,23.80
2020,07,27,11,10,23.80
2020,07,27,11,11,23.80
2020,07,27,11,12,23.70
2020,07,27,11,13,23.70
2020,07,27,11,14,23.70
2020,07,27,11,15,23.60
2020,07,27,11,16,23.60
2020,07,27,11,17,23.50
2020,07,27,11,18,23.50
2020,07,27,11,19,23.60
2020,07,27,11,20,23.60
2020,07,27,11,21,23.60
2020,07,27,11,22,23.60
2020,07,27,11,23,23.60
2020,07,27,11,24,23.60
2020,07,27,11,25,23.60
2020,07,27,11,26,23.60
2020,07,27,11,27,23.60
2020,07,27,11,28,23.60
2020,07,27,11,29,23.60
2020,07,27,11,30,23.70
2020,07,27,11,31,23.80
2020,07,27,11,32,23.80
2020,07,27,11,33,23.90
2020,07,27,11,34,23.90
2020,07,27,11,35,23.90
2020,07,27,11,36,23.80
2020,07,27,11,37,23.70
2020,07,27,11,38,23.70
2020,07,27,11,39,23.60
2020,07,27,11,40,23.60
2020,07,27,11,41,23.70
2020,07,27,11,42,23.60
2020,07,27,11,43,23.60
2020,07,27,11,44,23.60
2020,07,27,11,45,23.60
2020,07,27,11,46,23.60
2020,07,27,11,47,23.70
2020,07,27,11,48,23.80
2020,07,27,11,49,23.80
2020,07,27,11,50,23.90
2020,07,27,11,51,24.00
2020,07,27,11,52,24.00
2020,07,27,11,53,24.10
2020,07,27,11,54,24.20
2020,07,27,11,55,24.30
2020,07,27,11,56,24.30
2020,07,27,11,57,24.40
2020,07,27,11,58,24.40
2020,07,27,11,59,24.40
2020,07,27,12,00,24.40
2020,07,27,12,01,24.30
2020,07,27,12,02,24.30
2020,07,27,12,03,24.10
2020,07,27,12,04,24.10
2020,07,27,12,05,24.10
2020,07,27,12,06,24.10
2020,07,27,12,07,24.00
2020,07,27,12,08,23.90
2020,07,27,12,09,23.90
2020,07,27,12,10,23.90
2020,07,27,12,11,24.00
2020,07,27,12,12,24.00
2020,07,27,12,13,24.10
2020,07,27,12,14,24.30
2020,07,27,12,15,24.40
2020,07,27,12,16,24.40
2020,07,27,12,17,24.40
2020,07,27,12,18,24.50
2020,07,27,12,19,24.60
2020,07,27,12,20,24.60
2020,07,27,12,21,24.60
2020,07,27,12,22,24.70
2020,07,27,12,23,24.70
2020,07,27,12,24,24.70
2020,07,27,12,25,24.70
2020,07,27,12,26,24.80
2020,07,27,12,27,24.80
2020,07,27,12,28,24.80
2020,07,27,12,29,24.80
2020,07,27,12,30,24.90
2020,07,27,12,31,24.90
2020,07,27,12,32,25.00
2020,07,27,12,33,25.10
2020,07,27,12,34,25.00
2020,07,27,12,35,24.90
2020,07,27,12,36,25.00
2020,07,27,12,37,25.00
2020,07,27,12,38,25.10
2020,07,27,12,39,25.20
2020,07,27,12,40,25.30
2020,07,27,12,41,25.30
2020,07,27,12,42,25.30
2020,07,27,12,43,25.30
2020,07,27,12,44,25.30
2020,07,27,12,45,25.30
2020,07,27,12,46,25.20
2020,07,27,12,47,25.20
2020,07,27,12,48,25.20
2020,07,27,12,49,25.20
2020,07,27,12,50,25.20
2020,07,27,12,51,25.20
2020,07,27,12,52,25.20
2020,07,27,12,53,25.20
2020,07,27,12,54,25.20
2020,07,27,12,55,25.20
2020,07,27,12,56,25.20
2020,07,27,12,57,25.10
2020,07,27,12,58,25.10
2020,07,27,12,59,25.20
2020,07,27,13,00,25.20
2020,07,27,13,01,25.30
2020,07,27,13,02,25.30
2020,07,27,13,03,25.30
2020,07,27,13,04,25.20
2020,07,27,13,05,25.20
2020,07,27,13,06,25.20
2020,07,27,13,07,25.30
2020,07,27,13,08,25.30
2020,07,27,13,09,25.30
2020,07,27,13,10,25.40
2020,07,27,13,11,25.50
2020,07,27,13,12,25.50
2020,07,27,13,13,25.60
2020,07,27,13,14,25.60
2020,07,27,13,15,25.60
2020,07,27,13,16,25.70
2020,07,27,13,17,25.70
2020,07,27,13,18,25.60
2020,07,27,13,19,25.70
2020,07,27,13,20,25.60
2020,07,27,13,21,25.70
2020,07,27,13,22,25.70
2020,07,27,13,23,25.70
2020,07,27,13,24,25.70
2020,07,27,13,25,25.70
2020,07,27,13,26,25.70
2020,07,27,13,27,25.60
2020,07,27,13,28,25.60
2020,07,27,13,29,25.70
2020,07,27,13,30,25.70
2020,07,27,13,31,25.80
2020,07,27,13,32,25.70
2020,07,27,13,33,25.60
2020,07,27,13,34,25.60
2020,07,27,13,35,25.70
2020,07,27,13,36,25.80
2020,07,27,13,37,25.80
2020,07,27,13,38,25.80
2020,07,27,13,39,25.80
2020,07,27,13,40,25.70
2020,07,27,13,41,25.70
2020,07,27,13,42,25.70
2020,07,27,13,43,25.70
2020,07,27,13,44,25.70
2020,07,27,13,45,25.60
2020,07,27,13,46,25.60
2020,07,27,13,47,25.60
2020,07,27,13,48,25.60
2020,07,27,13,49,25.70
2020,07,27,13,50,25.70
2020,07,27,13,51,25.80
2020,07,27,13,52,25.80
2020,07,27,13,53,25.90
2020,07,27,13,54,25.90
2020,07,27,13,55,26.10
2020,07,27,13,56,26.10
2020,07,27,13,57,26.20
2020,07,27,13,58,26.20
2020,07,27,13,59,26.20
2020,07,27,14,00,26.20
2020,07,27,14,01,26.30
2020,07,27,14,02,26.30
2020,07,27,14,03,26.40
2020,07,27,14,04,26.40
2020,07,27,14,05,26.40
2020,07,27,14,06,26.40
2020,07,27,14,07,26.40
2020,07,27,14,08,26.40
2020,07,27,14,09,26.40
2020,07,27,14,10,26.50
2020,07,27,14,11,26.40
2020,07,27,14,12,26.40
2020,07,27,14,13,26.40
2020,07,27,14,14,26.40
2020,07,27,14,15,26.40
2020,07,27,14,16,26.40
2020,07,27,14,17,26.40
2020,07,27,14,18,26.40
2020,07,27,14,19,26.50
2020,07,27,14,20,26.50
2020,07,27,14,21,26.60
2020,07,27,14,22,26.70
2020,07,27,14,23,26.70
2020,07,27,14,24,26.80
2020,07,27,14,25,26.90
2020,07,27,14,26,27.00
2020,07,27,14,27,27.00
2020,07,27,14,28,27.00
2020,07,27,14,29,27.10
2020,07,27,14,30,27.10
2020,07,27,14,31,27.10
2020,07,27,14,32,27.20
2020,07,27,14,33,27.30
2020,07,27,14,34,27.30
2020,07,27,14,35,27.40
2020,07,27,14,36,27.50
2020,07,27,14,37,27.60
2020,07,27,14,38,27.80
2020,07,27,14,39,27.90
2020,07,27,14,40,28.00
2020,07,27,14,41,28.10
2020,07,27,14,42,28.20
2020,07,27,14,43,28.20
2020,07,27,14,44,28.30
2020,07,27,14,45,28.40
2020,07,27,14,46,28.40
2020,07,27,14,47,28.40
2020,07,27,14,48,28.40
2020,07,27,14,49,28.40
2020,07,27,14,50,28.50
2020,07,27,14,51,28.50
2020,07,27,14,52,28.60
2020,07,27,14,53,28.60
2020,07,27,14,54,28.60
2020,07,27,14,55,28.60
2020,07,27,14,56,28.60
2020,07,27,14,57,28.60
2020,07,27,14,58,28.50
2020,07,27,14,59,28.50
2020,07,27,15,00,28.60
2020,07,27,15,01,28.60
2020,07,27,15,02,28.60
2020,07,27,15,03,28.70
2020,07,27,15,04,28.70
2020,07,27,15,05,28.80
2020,07,27,15,06,28.90
2020,07,27,15,07,28.90
2020,07,27,15,08,29.00
2020,07,27,15,09,29.00
2020,07,27,15,10,28.90
2020,07,27,15,11,28.90
2020,07,27,15,12,28.90
2020,07,27,15,13,28.90
2020,07,27,15,14,29.00
2020,07,27,15,15,29.00
2020,07,27,15,16,29.10
2020,07,27,15,17,29.10
2020,07,27,15,18,29.20
2020,07,27,15,19,29.20
2020,07,27,15,20,29.20
2020,07,27,15,21,29.20
2020,07,27,15,22,29.20
2020,07,27,15,23,29.20
2020,07,27,15,24,29.20
2020,07,27,15,25,29.20
2020,07,27,15,26,29.10
2020,07,27,15,27,29.00
2020,07,27,15,28,28.90
2020,07,27,15,29,28.90
2020,07,27,15,30,28.90
2020,07,27,15,31,28.90
2020,07,27,15,32,28.90
2020,07,27,15,33,29.00
2020,07,27,15,34,29.00
2020,07,27,15,35,29.00
2020,07,27,15,36,29.10
2020,07,27,15,37,29.20
2020,07,27,15,38,29.20
2020,07,27,15,39,29.30
2020,07,27,15,40,29.50
2020,07,27,15,41,29.60
2020,07,27,15,42,29.70
2020,07,27,15,43,29.80
2020,07,27,15,44,29.90
2020,07,27,15,45,30.00
2020,07,27,15,46,30.00
2020,07,27,15,47,30.00
2020,07,27,15,48,30.00
2020,07,27,15,49,30.10
2020,07,27,15,50,30.10
2020,07,27,15,51,30.20
2020,07,27,15,52,30.30
2020,07,27,15,53,30.30
2020,07,27,15,54,30.30
2020,07,27,15,55,30.30
2020,07,27,15,56,30.30
2020,07,27,15,57,30.20
2020,07,27,15,58,30.10
2020,07,27,15,59,30.10
2020,07,27,16,00,30.00
2020,07,27,16,01,30.00
2020,07,27,16,02,30.00
2020,07,27,16,03,30.00
2020,07,27,16,04,30.00
2020,07,27,16,05,30.00
2020,07,27,16,06,30.00
2020,07,27,16,07,30.10
2020,07,27,16,08,30.10
2020,07,27,16,09,30.10
2020,07,27,16,10,30.20
2020,07,27,16,11,30.20
2020,07,27,16,12,30.20
2020,07,27,16,13,30.20
2020,07,27,16,14,30.20
2020,07,27,16,15,30.20
2020,07,27,16,16,30.30
2020,07,27,16,17,30.30
2020,07,27,16,18,30.30
2020,07,27,16,19,30.20
2020,07,27,16,20,30.20
2020,07,27,16,21,30.20
2020,07,27,16,22,30.10
2020,07,27,16,23,30.10
2020,07,27,16,24,30.10
2020,07,27,16,25,30.00
2020,07,27,16,26,30.00
2020,07,27,16,27,29.90
2020,07,27,16,28,29.70
2020,07,27,16,29,29.60
2020,07,27,16,30,29.50
2020,07,27,16,31,29.50
2020,07,27,16,32,29.40
2020,07,27,16,33,29.40
2020,07,27,16,34,29.40
2020,07,27,16,35,29.40
2020,07,27,16,36,29.30
2020,07,27,16,37,29.30
2020,07,27,16,38,29.30
2020,07,27,16,39,29.30
2020,07,27,16,40,29.30
2020,07,27,16,41,29.30
2020,07,27,16,42,29.30
2020,07,27,16,43,29.30
2020,07,27,16,44,29.30
2020,07,27,16,45,29.30
2020,07,27,16,46,29.30
2020,07,27,16,47,29.30
2020,07,27,16,48,29.40
2020,07,27,16,49,29.40
2020,07,27,16,50,29.40
2020,07,27,16,51,29.40
2020,07,27,16,52,29.30
2020,07,27,16,53,29.30
2020,07,27,16,54,29.30
2020,07,27,16,55,29.30
2020,07,27,16,56,29.20
2020,07,27,16,57,29.20
2020,07,27,16,58,29.20
2020,07,27,16,59,29.10
2020,07,27,17,00,29.10
2020,07,27,17,01,29.00
2020,07,27,17,02,28.90
2020,07,27,17,03,28.90
2020,07,27,17,04,28.80
2020,07,27,17,05,28.70
2020,07,27,17,06,28.60
2020,07,27,17,07,28.60
2020,07,27,17,08,28.60
2020,07,27,17,09,28.50
2020,07,27,17,10,28.50
2020,07,27,17,11,28.50
2020,07,27,17,12,28.40
2020,07,27,17,13,28.30
2020,07,27,17,14,28.30
2020,07,27,17,15,28.30
2020,07,27,17,16,28.20
2020,07,27,17,17,28.20
2020,07,27,17,18,28.10
2020,07,27,17,19,28.10